Date String (YYYY-MM-DD hh:mm:ss) UTC,Instrument flags,Ambient pressure (hPa),Sample flow (lpm),Bypass flow (lpm),Sample temperature (°C),Ambient temperature (°C),ASC tube jacket temperature (°C),LED temperature (°C),Box temperature (°C),Sample RH (%),Span deviation,Mass concentration (μg/m³),Mass concentration (μg/m³),Mass concentration (μg/m³)
DateTimeUTC,F1_M11,P_M11,Q1_M11,Q2_M11,T1_M11,T2_M11,T3_M11,T4_M11,T5_M11,U1_M11,ZSPAN_M11,X0_M11,X2_M11,X1_M11
2021-08-31 04:00:00,,0824.0,4.99,0.00,29.4,28.2,00.0,38.4,31.2,12.4,0002.7,0041.29,0030.54,0028.89
2021-08-31 04:01:00,,0824.0,5.00,0.00,29.4,28.3,00.0,38.4,31.2,12.4,0002.6,0041.14,0030.48,0028.87
2021-08-31 04:02:00,,0824.0,5.00,0.00,29.5,28.4,00.0,38.4,31.3,12.4,0002.5,0040.59,0030.47,0028.89
2021-08-31 04:03:00,,0824.0,5.01,0.00,29.5,28.5,00.0,38.4,31.3,12.3,0002.4,0040.40,0030.50,0028.94
2021-08-31 04:04:00,,0823.9,5.00,0.00,29.5,28.6,00.0,38.5,31.4,12.2,0002.4,0040.15,0030.49,0028.96
2021-08-31 04:05:00,,0824.0,4.98,0.00,29.6,28.7,00.0,38.5,31.4,12.1,0002.2,0039.00,0030.41,0028.95
2021-08-31 04:06:00,,0824.0,5.00,0.00,29.6,28.5,00.0,38.5,31.4,12.1,0002.1,0038.77,0030.37,0028.97
2021-08-31 04:07:00,,0824.0,5.00,0.00,29.5,26.8,00.0,38.5,31.0,12.1,0002.4,0038.72,0030.42,0029.07
2021-08-31 04:08:00,,0823.9,5.01,0.00,29.4,26.2,00.0,38.5,30.8,12.2,0002.4,0038.83,0030.45,0029.12
2021-08-31 04:09:00,,0823.9,4.99,0.00,29.3,26.5,00.0,38.5,30.9,12.3,0002.5,0039.47,0030.49,0029.17
2021-08-31 04:10:00,,0824.0,5.01,0.00,29.3,26.9,00.0,38.5,30.9,12.3,0002.2,0040.55,0030.53,0029.22
2021-08-31 04:11:00,,0824.0,5.00,0.00,29.3,27.3,00.0,38.4,31.0,12.3,0002.2,0040.20,0030.53,0029.23
2021-08-31 04:12:00,,0824.0,5.00,0.00,29.3,27.6,00.0,38.4,31.0,12.2,0002.1,0040.94,0030.60,0029.27
2021-08-31 04:13:00,,0824.0,5.00,0.00,29.3,27.8,00.0,38.4,31.1,12.2,0001.9,0041.31,0030.68,0029.28
2021-08-31 04:14:00,,0824.0,5.00,0.00,29.4,28.0,00.0,38.4,31.1,12.2,0001.8,0041.25,0030.67,0029.26
2021-08-31 04:15:00,,0824.0,5.01,0.00,29.4,28.2,00.0,38.4,31.2,12.1,0001.8,0041.28,0030.73,0029.26
2021-08-31 04:16:00,,0824.0,5.01,0.00,29.4,28.3,00.0,38.5,31.2,12.2,0002.0,0041.65,0030.82,0029.31
2021-08-31 04:17:00,,0824.0,5.00,0.00,29.5,28.4,00.0,38.5,31.3,12.2,0001.9,0041.87,0030.89,0029.34
2021-08-31 04:18:00,,0824.0,5.01,0.00,29.5,28.5,00.0,38.5,31.4,12.1,0001.7,0041.76,0030.82,0029.26
2021-08-31 04:19:00,,0823.9,5.00,0.00,29.6,28.6,00.0,38.5,31.4,12.1,0001.7,0041.49,0030.75,0029.25
2021-08-31 04:20:00,,0823.9,4.99,0.00,29.6,28.7,00.0,38.5,31.4,12.1,0001.6,0041.29,0030.78,0029.29
2021-08-31 04:21:00,,0824.0,5.01,0.00,29.6,28.5,00.0,38.6,31.4,12.0,0001.7,0040.53,0030.91,0029.35
2021-08-31 04:22:00,,0823.9,5.01,0.00,29.5,26.7,00.0,38.5,30.9,12.2,0001.9,0040.68,0030.95,0029.38
2021-08-31 04:23:00,,0823.9,4.99,0.00,29.4,26.2,00.0,38.5,30.8,12.2,0002.3,0041.13,0031.03,0029.43
2021-08-31 04:24:00,,0823.9,5.00,0.00,29.3,26.5,00.0,38.5,30.9,12.3,0002.5,0041.50,0031.11,0029.50
2021-08-31 04:25:00,,0823.9,5.00,0.00,29.3,26.9,00.0,38.5,30.9,12.3,0002.5,0042.41,0031.20,0029.59
2021-08-31 04:26:00,,0823.9,4.98,0.00,29.3,27.3,00.0,38.4,31.0,12.3,0002.6,0043.10,0031.20,0029.63
2021-08-31 04:27:00,,0823.9,5.01,0.00,29.3,27.6,00.0,38.4,31.0,12.3,0002.2,0043.85,0031.28,0029.66
2021-08-31 04:28:00,,0824.0,4.99,0.00,29.4,27.8,00.0,38.4,31.1,12.2,0002.3,0044.41,0031.31,0029.66
2021-08-31 04:29:00,,0823.9,5.01,0.00,29.4,28.0,00.0,38.5,31.1,12.2,0002.4,0045.17,0031.35,0029.69
2021-08-31 04:30:00,,0823.9,5.00,0.00,29.4,28.2,00.0,38.5,31.2,12.2,0002.4,0045.04,0031.31,0029.68
2021-08-31 04:31:00,,0824.0,4.99,0.00,29.5,28.3,00.0,38.5,31.3,12.1,0002.4,0046.72,0031.28,0029.65
2021-08-31 04:32:00,,0824.0,4.99,0.00,29.5,28.4,00.0,38.5,31.3,12.1,0002.4,0046.96,0031.18,0029.62
2021-08-31 04:33:00,,0824.0,4.99,0.00,29.5,28.5,00.0,38.5,31.3,12.1,0002.5,0046.80,0031.18,0029.63
2021-08-31 04:34:00,,0824.0,5.00,0.00,29.6,28.6,00.0,38.5,31.4,12.0,0002.2,0045.88,0031.13,0029.61
2021-08-31 04:35:00,,0824.0,5.00,0.00,29.6,28.7,00.0,38.6,31.4,12.0,0002.1,0045.67,0031.09,0029.60
2021-08-31 04:36:00,,0824.0,5.01,0.00,29.6,28.7,00.0,38.6,31.4,11.9,0002.2,0045.33,0031.03,0029.57
2021-08-31 04:37:00,,0823.9,4.99,0.00,29.6,27.6,00.0,38.6,31.2,11.9,0002.1,0045.55,0031.04,0029.57
2021-08-31 04:38:00,,0823.9,5.01,0.00,29.5,26.3,00.0,38.6,30.8,12.0,0002.0,0045.43,0031.01,0029.58
2021-08-31 04:39:00,,0823.8,5.00,0.00,29.4,26.4,00.0,38.5,30.8,12.1,0002.0,0045.38,0030.98,0029.59
2021-08-31 04:40:00,,0823.8,5.00,0.00,29.3,26.8,00.0,38.5,30.9,12.1,0001.9,0044.90,0030.96,0029.59
2021-08-31 04:41:00,,0823.8,4.99,0.00,29.3,27.1,00.0,38.5,30.9,12.1,0001.8,0045.41,0031.10,0029.65
2021-08-31 04:42:00,,0823.8,5.00,0.00,29.3,27.5,00.0,38.5,31.0,12.1,0001.9,0044.81,0031.18,0029.68
2021-08-31 04:43:00,,0823.8,5.00,0.00,29.4,27.7,00.0,38.5,31.1,12.1,0002.0,0043.89,0031.22,0029.71
2021-08-31 04:44:00,,0823.8,5.01,0.00,29.4,28.0,00.0,38.5,31.1,12.1,0002.0,0043.99,0031.26,0029.73
2021-08-31 04:45:00,,0823.8,5.01,0.00,29.4,28.1,00.0,38.5,31.2,12.1,0002.0,0044.73,0031.28,0029.74
2021-08-31 04:46:00,,0823.8,5.01,0.00,29.5,28.3,00.0,38.5,31.3,12.1,0002.1,0044.85,0031.27,0029.73
2021-08-31 04:47:00,,0823.8,4.99,0.00,29.5,28.4,00.0,38.5,31.3,12.0,0002.1,0044.28,0031.31,0029.77
2021-08-31 04:48:00,,0823.8,4.99,0.00,29.5,28.5,00.0,38.5,31.3,12.0,0002.2,0043.37,0031.33,0029.78
2021-08-31 04:49:00,,0823.8,5.00,0.00,29.6,28.6,00.0,38.5,31.4,12.0,0002.4,0043.42,0031.29,0029.75
2021-08-31 04:50:00,,0823.8,4.99,0.00,29.6,28.6,00.0,38.6,31.4,11.9,0002.3,0043.06,0031.23,0029.73
2021-08-31 04:51:00,,0823.8,5.00,0.00,29.6,28.7,00.0,38.6,31.4,11.9,0002.4,0043.24,0031.28,0029.75
2021-08-31 04:52:00,,0823.8,5.00,0.00,29.7,28.4,00.0,38.6,31.4,11.8,0002.5,0042.97,0031.22,0029.71
2021-08-31 04:53:00,,0823.8,5.01,0.00,29.6,26.7,00.0,38.6,31.0,12.0,0002.5,0041.99,0031.22,0029.71
2021-08-31 04:54:00,,0823.8,5.00,0.00,29.5,26.3,00.0,38.6,30.9,12.0,0002.4,0041.67,0031.18,0029.71
2021-08-31 04:55:00,,0823.8,5.00,0.00,29.4,26.6,00.0,38.6,30.9,12.0,0002.2,0041.48,0031.12,0029.68
2021-08-31 04:56:00,,0823.8,5.00,0.00,29.3,27.0,00.0,38.5,30.9,12.1,0002.1,0041.27,0031.08,0029.69
2021-08-31 04:57:00,,0823.7,5.00,0.00,29.3,27.3,00.0,38.5,31.0,12.1,0002.3,0040.94,0031.07,0029.70
2021-08-31 04:58:00,,0823.7,5.00,0.00,29.4,27.6,00.0,38.5,31.1,12.1,0002.2,0041.90,0031.07,0029.68
2021-08-31 04:59:00,,0823.7,5.00,0.00,29.4,27.9,00.0,38.5,31.1,12.1,0002.1,0042.94,0031.08,0029.64
